TimeIST,TemperatureF,Dew PointF,Humidity,Sea Level PressureIn,VisibilityMPH,Wind Direction,Wind SpeedMPH,Gust SpeedMPH,PrecipitationIn,Events,Conditions,WindDirDegrees,DateUTC
12:10 AM,78.8,75.2,89,29.95,3.1,SW,4.6,-,N/A,,Haze,220,2012-10-15 18:40:00
12:40 AM,77.0,75.2,94,29.95,3.1,SSW,4.6,-,N/A,,Haze,210,2012-10-15 19:10:00
1:10 AM,77.0,75.2,94,29.95,3.1,South,5.8,-,N/A,,Haze,190,2012-10-15 19:40:00
1:40 AM,77.0,75.2,94,29.92,3.1,SW,3.5,-,N/A,,Haze,220,2012-10-15 20:10:00
2:10 AM,78.8,73.4,83,29.89,3.1,SSW,3.5,-,N/A,,Haze,200,2012-10-15 20:40:00
2:30 AM,80,74,78,29.89,2,SW,4.6,,,,Haze,230,2012-10-15 21:00:00
2:40 AM,78.8,75.2,89,29.89,3.1,South,3.5,-,N/A,,Light Drizzle,190,2012-10-15 21:10:00
3:10 AM,78.8,75.2,89,29.89,3.1,SW,3.5,-,N/A,,Light Drizzle,230,2012-10-15 21:40:00
5:10 AM,77.0,75.2,94,29.86,3.1,SW,2.3,-,N/A,,Haze,220,2012-10-15 23:40:00
5:30 AM,77,74,90,29.88,2,WSW,2.3,,,,Haze,240,2012-10-16 00:00:00
6:10 AM,77.0,75.2,94,29.74,3.1,Calm,Calm,-,N/A,,Haze,0,2012-10-16 00:40:00
7:40 AM,77.0,73.4,89,29.92,1.9,WNW,3.5,-,N/A,,Haze,300,2012-10-16 02:10:00
8:10 AM,78.8,73.4,83,29.95,2.5,NW,4.6,-,N/A,,Haze,310,2012-10-16 02:40:00
8:30 AM,80,74,76,29.96,2,WNW,4.6,,,,Haze,290,2012-10-16 03:00:00
8:40 AM,80.6,73.4,79,29.98,2.5,WNW,5.8,-,N/A,,Haze,290,2012-10-16 03:10:00
9:10 AM,82.4,73.4,74,29.98,2.5,WNW,6.9,-,N/A,,Haze,290,2012-10-16 03:40:00
10:10 AM,84.2,73.4,70,29.95,3.1,WNW,6.9,-,N/A,,Haze,300,2012-10-16 04:40:00
10:40 AM,86.0,73.4,66,29.95,3.1,NW,5.8,-,N/A,,Haze,320,2012-10-16 05:10:00
11:10 AM,86.0,73.4,66,29.95,3.1,North,4.6,-,N/A,,Haze,350,2012-10-16 05:40:00
11:30 AM,85,74,62,29.94,2,North,4.6,,,,Haze,0,2012-10-16 06:00:00
11:40 AM,86.0,73.4,66,29.95,3.1,NNW,5.8,-,N/A,,Haze,340,2012-10-16 06:10:00
12:10 PM,86.0,73.4,66,29.92,3.7,NNW,4.6,-,N/A,,Scattered Clouds,330,2012-10-16 06:40:00
12:40 PM,87.8,73.4,62,29.92,3.7,WNW,3.5,-,N/A,,Scattered Clouds,300,2012-10-16 07:10:00
1:10 PM,87.8,73.4,62,29.89,3.7,Variable,2.3,-,N/A,,Mostly Cloudy,0,2012-10-16 07:40:00
1:40 PM,87.8,73.4,62,29.86,3.7,Variable,2.3,-,N/A,,Mostly Cloudy,0,2012-10-16 08:10:00
2:10 PM,87.8,73.4,62,29.86,3.7,Variable,3.5,-,N/A,,Mostly Cloudy,0,2012-10-16 08:40:00
2:30 PM,87,74,58,29.82,2,East,9.2,,,,Haze,90,2012-10-16 09:00:00
2:40 PM,86.0,73.4,66,29.86,3.7,East,6.9,-,N/A,,Mostly Cloudy,90,2012-10-16 09:10:00
3:40 PM,82.4,73.4,74,29.86,3.1,Variable,2.3,-,N/A,,Haze,0,2012-10-16 10:10:00
4:10 PM,84.2,73.4,70,29.86,2.5,Calm,Calm,-,N/A,,Haze,0,2012-10-16 10:40:00
4:40 PM,84.2,73.4,70,29.86,2.5,Calm,Calm,-,N/A,,Haze,0,2012-10-16 11:10:00
5:10 PM,82.4,71.6,70,29.86,2.5,Calm,Calm,-,N/A,,Haze,0,2012-10-16 11:40:00
5:30 PM,83,75,72,29.86,2,Calm,Calm,,,,Haze,,2012-10-16 12:00:00
5:40 PM,82.4,75.2,79,29.86,2.5,Calm,Calm,-,N/A,,Haze,0,2012-10-16 12:10:00
6:40 PM,82.4,75.2,79,29.89,2.5,Calm,Calm,-,N/A,,Haze,0,2012-10-16 13:10:00
7:10 PM,82.4,75.2,79,29.89,2.5,Calm,Calm,-,N/A,,Haze,0,2012-10-16 13:40:00
7:40 PM,82.4,75.2,79,29.92,2.5,Variable,4.6,-,N/A,,Haze,0,2012-10-16 14:10:00
8:10 PM,82.4,75.2,79,29.92,2.5,NNE,4.6,-,N/A,,Haze,20,2012-10-16 14:40:00
9:40 PM,77.0,73.4,89,29.95,3.1,SSE,4.6,-,N/A,Rain-Thunderstorm,Light Thunderstorms and Rain,160,2012-10-16 16:10:00
10:10 PM,75.2,73.4,94,29.95,3.1,South,3.5,-,N/A,Thunderstorm,Thunderstorm,180,2012-10-16 16:40:00
10:40 PM,75.2,73.4,94,29.95,3.1,South,4.6,-,N/A,Thunderstorm,Thunderstorm,170,2012-10-16 17:10:00
11:30 PM,74,72,91,29.96,1,NW,3.5,,,Rain-Thunderstorm,Thunderstorms and Rain,320,2012-10-16 18:00:00